sat.trackr.live / text

‹ back to catalog

STARLINK-35444

NORAD 66511 · 2025-263AC

PAYLOAD ACTIVE UNKNOWN

§ Identity

Operator
Country
US
Launch date
2025-11-15
Launch site
AFETR
Launch vehicle
Mass (kg)
RCS (m²)

Purposes: comms

External: N2YO · Heavens-Above · Gunter

§ Orbital elements

Epoch: 2026-05-25T01:58:12.630432Z

Period
94.27 min
Inclination
42.9998°
Eccentricity
0.0000188
Mean motion
15.27583326 rev/d
Perigee alt
482.9 km
Apogee alt
483.2 km
Semi-major
6,861.2 km
B*
4.8465e-4
RAAN
279.1356°
Arg perigee
4.9983°
Mean anomaly
355.0870°
Rev number
3,058

§ Raw data

STARLINK-354441 66511U 25263AC  26145.08209063  .00013100  00000+0  48465-3 0  99972 66511  42.9998 279.1356 0000188   4.9983 355.0870 15.27583326 30581

JSON: /api/v1/satellites/66511 · /tle

For live sub-satellite position, see the globe view (requires WebGL).

§ Visibility from observer

Set your observer location to see the next 7 days of passes ≥ 10°. The values pass through the URL so the page stays shareable.

No JS? Fill the form by hand. The geolocation button needs JavaScript.